Total_Precipitation_Accumulation
0.00 0.00 0.00 0.00 0.00 0.00 0.00 0.00 0.00 0.00 0.00 0.00 0.00 0.00 0.01 0.01 0.03 0.03 0.06 0.17 0.30 0.36 0.49 0.59 0.58 0.52 0.52 0.53 0.57 0.68 0.92 1.22 1.58 1.59 1.38 1.34 1.24 1.18 1.10 1.03 1.00 1.04 1.10 1.27
0.00 0.00 0.00 0.00 0.00 0.00 0.00 0.00 0.00 0.00 0.00 0.00 0.00 0.00 0.01 0.03 0.05 0.08 0.09 0.13 0.26 0.41 0.57 0.73 0.76 0.71 0.76 1.00 1.19 1.31 1.50 1.90 2.08 1.96 1.90 1.87 1.87 1.66 1.64 1.56 1.41 1.24 1.18 1.29
0.00 0.00 0.00 0.00 0.00 0.00 0.00 0.00 0.00 0.00 0.00 0.00 0.00 0.00 0.02 0.08 0.15 0.23 0.23 0.22 0.27 0.36 0.45 0.53 0.58 0.65 0.78 0.96 1.11 1.36 1.74 2.10 2.24 2.28 2.32 2.26 2.25 1.98 1.90 1.80 1.65 1.46 1.33 1.30
0.00 0.00 0.00 0.00 0.00 0.00 0.00 0.00 0.00 0.00 0.00 0.00 0.00 0.00 0.01 0.08 0.21 0.28 0.27 0.30 0.39 0.54 0.57 0.55 0.57 0.63 0.67 0.71 0.91 1.25 1.59 1.90 2.11 2.24 2.28 2.33 2.31 2.18 2.15 2.01 1.72 1.47 1.32 1.34
0.00 0.00 0.00 0.00 0.00 0.00 0.00 0.00 0.00 0.00 0.00 0.00 0.00 0.00 0.01 0.04 0.12 0.22 0.27 0.37 0.56 0.62 0.57 0.60 0.67 0.77 0.79 0.87 1.04 1.24 1.45 1.69 1.86 1.93 1.99 2.03 1.95 1.90 1.86 1.72 1.50 1.34 1.28 1.25
0.00 0.01 0.01 0.00 0.00 0.00 0.00 0.00 0.00 0.00 0.01 0.02 0.03 0.02 0.02 0.04 0.07 0.15 0.26 0.34 0.48 0.63 0.65 0.71 0.76 0.83 0.88 1.00 1.17 1.33 1.47 1.67 1.78 1.68 1.58 1.57 1.56 1.59 1.51 1.41 1.30 1.18 1.11 1.06
0.00 0.01 0.01 0.01 0.01 0.01 0.00 0.02 0.05 0.06 0.10 0.10 0.10 0.07 0.07 0.07 0.06 0.11 0.22 0.30 0.41 0.53 0.58 0.63 0.77 0.98 1.03 1.00 1.03 1.21 1.47 1.75 1.77 1.59 1.42 1.35 1.33 1.36 1.36 1.29 1.23 1.17 1.07 0.99
0.01 0.02 0.02 0.03 0.04 0.05 0.04 0.06 0.17 0.15 0.08 0.06 0.05 0.06 0.13 0.12 0.15 0.19 0.24 0.28 0.29 0.29 0.26 0.27 0.33 0.43 0.46 0.46 0.46 0.52 0.65 0.85 0.95 0.93 0.92 0.91 0.96 1.03 1.08 1.15 1.12 1.13 1.08 0.97
0.01 0.01 0.02 0.05 0.09 0.09 0.14 0.15 0.12 0.24 0.21 0.17 0.05 0.07 0.20 0.23 0.25 0.28 0.28 0.25 0.22 0.20 0.18 0.19 0.23 0.28 0.33 0.33 0.37 0.46 0.53 0.59 0.62 0.61 0.60 0.61 0.67 0.77 0.85 0.92 0.96 0.99 0.99 0.92
0.01 0.01 0.01 0.02 0.06 0.08 0.10 0.15 0.29 0.45 0.43 0.30 0.13 0.17 0.37 0.54 0.52 0.45 0.40 0.35 0.28 0.23 0.22 0.23 0.26 0.30 0.39 0.47 0.56 0.62 0.61 0.56 0.51 0.50 0.51 0.49 0.54 0.59 0.65 0.68 0.71 0.72 0.73 0.75
0.01 0.01 0.03 0.08 0.11 0.11 0.11 0.16 0.30 0.43 0.45 0.43 0.35 0.32 0.28 0.39 0.52 0.62 0.62 0.50 0.37 0.30 0.26 0.27 0.27 0.30 0.36 0.45 0.52 0.58 0.59 0.56 0.53 0.51 0.51 0.51 0.50 0.50 0.52 0.57 0.57 0.59 0.60 0.61
0.01 0.02 0.03 0.05 0.05 0.03 0.08 0.15 0.28 0.44 0.48 0.49 0.47 0.40 0.20 0.21 0.34 0.43 0.45 0.36 0.28 0.25 0.24 0.24 0.23 0.24 0.28 0.34 0.42 0.45 0.48 0.52 0.52 0.47 0.47 0.49 0.47 0.43 0.45 0.46 0.46 0.48 0.51 0.53
0.01 0.02 0.02 0.03 0.06 0.07 0.10 0.10 0.17 0.27 0.36 0.40 0.47 0.48 0.27 0.29 0.37 0.41 0.41 0.36 0.29 0.26 0.26 0.24 0.23 0.24 0.26 0.32 0.39 0.42 0.44 0.48 0.49 0.47 0.47 0.44 0.46 0.46 0.43 0.37 0.35 0.36 0.39 0.45
0.00 0.00 0.01 0.03 0.03 0.03 0.05 0.06 0.10 0.20 0.30 0.27 0.23 0.32 0.35 0.36 0.39 0.40 0.37 0.31 0.25 0.22 0.23 0.22 0.24 0.26 0.27 0.27 0.29 0.34 0.42 0.50 0.46 0.43 0.42 0.40 0.38 0.38 0.40 0.37 0.33 0.31 0.32 0.36
0.00 0.00 0.01 0.01 0.02 0.02 0.02 0.03 0.06 0.11 0.14 0.22 0.20 0.30 0.39 0.37 0.33 0.30 0.30 0.26 0.22 0.20 0.18 0.17 0.17 0.18 0.19 0.22 0.25 0.29 0.30 0.38 0.43 0.44 0.41 0.40 0.39 0.35 0.33 0.30 0.28 0.26 0.25 0.25
0.00 0.00 0.01 0.06 0.09 0.09 0.09 0.07 0.08 0.10 0.10 0.14 0.19 0.29 0.28 0.25 0.25 0.26 0.26 0.24 0.22 0.17 0.14 0.12 0.11 0.11 0.12 0.14 0.17 0.21 0.22 0.27 0.33 0.34 0.33 0.36 0.36 0.34 0.33 0.27 0.23 0.21 0.19 0.20
0.00 0.01 0.01 0.06 0.16 0.16 0.19 0.10 0.11 0.14 0.14 0.23 0.36 0.39 0.29 0.27 0.24 0.21 0.18 0.16 0.12 0.09 0.08 0.07 0.06 0.06 0.07 0.07 0.09 0.15 0.19 0.20 0.23 0.26 0.28 0.30 0.33 0.35 0.33 0.25 0.21 0.18 0.16 0.17
0.01 0.01 0.02 0.06 0.15 0.21 0.17 0.04 0.04 0.08 0.08 0.10 0.17 0.18 0.18 0.20 0.17 0.13 0.10 0.08 0.06 0.04 0.03 0.03 0.02 0.02 0.02 0.03 0.06 0.12 0.19 0.22 0.24 0.29 0.33 0.33 0.32 0.35 0.34 0.27 0.23 0.20 0.19 0.18
0.00 0.00 0.01 0.04 0.07 0.14 0.06 0.03 0.05 0.09 0.10 0.05 0.08 0.09 0.08 0.07 0.07 0.08 0.04 0.02 0.01 0.01 0.01 0.01 0.01 0.01 0.02 0.04 0.08 0.14 0.18 0.24 0.29 0.34 0.37 0.36 0.34 0.35 0.34 0.32 0.31 0.29 0.29 0.24
0.00 0.00 0.01 0.02 0.06 0.11 0.07 0.04 0.06 0.08 0.20 0.11 0.07 0.05 0.03 0.02 0.06 0.08 0.02 0.00 0.00 0.00 0.00 0.01 0.01 0.03 0.06 0.08 0.12 0.20 0.23 0.28 0.32 0.31 0.31 0.29 0.32 0.36 0.37 0.38 0.39 0.37 0.36 0.30
0.00 0.00 0.01 0.02 0.06 0.06 0.02 0.03 0.05 0.15 0.24 0.05 0.01 0.01 0.01 0.02 0.05 0.03 0.01 0.00 0.00 0.00 0.01 0.02 0.03 0.07 0.13 0.12 0.17 0.22 0.24 0.27 0.28 0.30 0.30 0.30 0.31 0.35 0.38 0.44 0.47 0.47 0.43 0.39
0.00 0.01 0.02 0.03 0.08 0.10 0.01 0.01 0.03 0.05 0.04 0.02 0.02 0.02 0.02 0.01 0.01 0.01 0.01 0.01 0.01 0.02 0.02 0.03 0.06 0.11 0.17 0.18 0.23 0.25 0.25 0.27 0.30 0.33 0.33 0.33 0.36 0.29 0.29 0.44 0.51 0.54 0.53 0.48
0.00 0.01 0.02 0.04 0.06 0.02 0.01 0.01 0.02 0.02 0.03 0.03 0.02 0.02 0.01 0.01 0.01 0.01 0.01 0.02 0.02 0.03 0.04 0.06 0.09 0.13 0.16 0.21 0.31 0.38 0.37 0.36 0.38 0.42 0.44 0.45 0.43 0.41 0.43 0.49 0.52 0.54 0.55 0.53
0.00 0.01 0.02 0.03 0.02 0.01 0.02 0.02 0.02 0.02 0.02 0.01 0.01 0.01 0.01 0.01 0.02 0.02 0.03 0.02 0.03 0.03 0.04 0.06 0.10 0.14 0.20 0.24 0.34 0.42 0.44 0.43 0.45 0.50 0.52 0.55 0.57 0.54 0.54 0.61 0.62 0.60 0.59 0.59
0.00 0.01 0.03 0.06 0.04 0.02 0.03 0.02 0.01 0.00 0.00 0.00 0.01 0.01 0.01 0.02 0.02 0.02 0.02 0.02 0.03 0.03 0.04 0.07 0.12 0.18 0.22 0.26 0.33 0.37 0.41 0.46 0.52 0.54 0.52 0.55 0.63 0.67 0.66 0.65 0.65 0.64 0.66 0.62
0.01 0.03 0.05 0.07 0.06 0.05 0.04 0.02 0.01 0.01 0.01 0.01 0.01 0.01 0.01 0.02 0.02 0.02 0.02 0.03 0.04 0.05 0.07 0.10 0.15 0.19 0.23 0.26 0.32 0.37 0.45 0.51 0.59 0.59 0.56 0.56 0.58 0.63 0.63 0.63 0.52 0.46 0.48 0.44